Location: Chippewa Lake
(41.0698°N, 81.9010°W)
Time: 02:08:56
(UTC+00:00)

Cosmos 1140 Rocket - Pass Details

Date: 09 May 2021
Orbit: 744 x 768 km, 74.1° (Epoch: 24 June)

Event Time Altitude Azimuth Distance (km) Brightness Sun altitude
Rises 09:13:36 0° 335° (NNW) 3,222 6.9 -11.0°
Reaches altitude 10° 09:16:01 10° 331° (NNW) 2,296 6.0 -10.6°
Maximum altitude 09:21:03 52° 256° (WSW) 944 3.6 -9.8°
Drops below altitude 10° 09:26:05 10° 181° (S) 2,293 5.7 -9.0°
Sets 09:28:30 0° 176° (S) 3,217 6.4 -8.6°
